This is the latest recevied weather packets stored in our database for station/object EW8324. If no packets are shown the sender has not sent any weather packets the latest 10 day(s).
| Time | Temp. | Humidity | Pressure | Rain* | Wind** | Luminosity | Snow |
|---|---|---|---|---|---|---|---|
| 1777906796 | 24.44° C | 59% | 1011.6 hPa | 0.25 mm | - | 341 W/m² | - |
| 1777906493 | 24.44° C | 61% | 1011.6 hPa | 0.25 mm | - | 573 W/m² | - |
| 1777906208 | 24.44° C | 61% | 1011.4 hPa | 0.25 mm | - | 580 W/m² | - |
| 1777905894 | 23.89° C | 62% | 1011.5 hPa | 0.25 mm | - | 566 W/m² | - |
| 1777905592 | 23.89° C | 61% | 1011.6 hPa | 0.25 mm | - | 549 W/m² | - |
| 1777905293 | 23.89° C | 62% | 1011.6 hPa | 0 mm | - | 528 W/m² | - |
| 1777905055 | 23.33° C | 61% | 1011.5 hPa | 0 mm | - | 492 W/m² | - |
| 1777904692 | 23.33° C | 63% | 1011.5 hPa | 0 mm | - | 498 W/m² | - |
| 1777904395 | 22.78° C | 65% | 1011.6 hPa | 0 mm | - | 477 W/m² | - |
| 1777904092 | 22.22° C | 65% | 1011.6 hPa | 0 mm | - | - | - |
| 1777903791 | 22.22° C | 66% | 1011.5 hPa | 0 mm | - | 450 W/m² | - |
| 1777903492 | 21.67° C | 67% | 1011.5 hPa | 0 mm | - | 433 W/m² | - |
| 1777903193 | 21.11° C | 72% | 1011.5 hPa | 0 mm | - | 415 W/m² | - |
| 1777902890 | 20.56° C | 73% | 1011.5 hPa | 0 mm | - | 383 W/m² | - |
| 1777902593 | 19.44° C | 75% | 1011.6 hPa | 0 mm | - | 359 W/m² | - |
| 1777902290 | 18.89° C | 78% | 1011.7 hPa | 0 mm | - | 239 W/m² | - |
| 1777901992 | 18.33° C | 80% | 1011.7 hPa | 0 mm | - | 292 W/m² | - |
| 1777901689 | 17.78° C | 83% | 1011.6 hPa | 0 mm | - | 288 W/m² | - |
| 1777901392 | 17.22° C | 83% | 1011.7 hPa | 0 mm | - | 225 W/m² | - |
| 1777901090 | 16.67° C | 84% | 1011.6 hPa | 0 mm | - | 213 W/m² | - |
| 1777900792 | 16.11° C | 85% | 1011.7 hPa | 0 mm | - | 92 W/m² | - |
| 1777900502 | 16.11° C | 84% | 1011.4 hPa | 0 mm | - | 67 W/m² | - |
| 1777900194 | 15.56° C | 83% | 1011.5 hPa | 0 mm | - | 44 W/m² | - |
| 1777899891 | 15.56° C | 82% | 1011.6 hPa | 0 mm | - | 51 W/m² | - |
| 1777899651 | 15.56° C | 83% | 1011.6 hPa | 0 mm | - | 51 W/m² | - |
* Rain latest hour (hover to see other rain measurements)
** Current wind speed in m/s (hover to see current wind gust speed)